Williamtown, Australia

8:03 AM AEDT on November 24, 2017 (GMT +1100)
Williamtown Military

Weather History for YWLM - November, 2012

Change the Weather History Date:

Saturday, November 24, 2012

  Actual Average Record
Temperature  
Mean Temperature 66 °F -  
Max Temperature 78 °F - - ()
Min Temperature 55 °F - - ()
Cooling Degree Days 2    
Growing Degree Days 16 (Base 50)    
Moisture  
Dew Point 61 °F    
Average Humidity 73    
Maximum Humidity 100    
Minimum Humidity 43    
Precipitation  
Precipitation 0.00 in - - ()
Sea Level Pressure  
Sea Level Pressure 30.00 in    
Wind  
Wind Speed 5 mph ()    
Max Wind Speed 17 mph    
Max Gust Speed 24 mph    
Visibility 6.2 miles    
Events      
T = Trace of Precipitation, MM = Missing Value Source: Averaged Metar Reports

Daily Weather History Graph

Daily Weather History Graph

Search for Another Location

Airport or City:

Trip Planner

Search our weather history database for the weather conditions in past years. The results will help you decide how hot, cold, wet, or windy it might be!

Date:

Astronomy

Nov. 24, 2012 Rise Set
Actual Time 5:39 AM AEDT 7:40 PM AEDT
Civil Twilight 5:11 AM AEDT 8:07 PM AEDT
Nautical Twilight 4:37 AM AEDT 8:41 PM AEDT
Astronomical Twilight 4:02 AM AEDT 9:17 PM AEDT
Moon 3:49 PM AEDT (11/24) 2:44 AM AEDT (11/24)
Length of Visible Light 14h 56m
Length of Day
14h 00m
Waxing Gibbous, 82% of the Moon is Illuminated
Nov 24
Waxing Gibbous
Nov 29
Full
Dec 7
Last Quarter
Dec 13
New
Dec 20
First Quarter

Hourly Weather History & Observations

Time (AEDT) Temp. Dew Point Humidity Pressure Visibility Wind Dir Wind Speed Gust Speed Precip Events Conditions
12:00 AM 63 °F 59 °F 82% 30.10 in - Calm Calm - -   Overcast
12:00 AM 62.6 °F 59.0 °F 88% 30.09 in 6.2 mi Calm Calm - N/A   Overcast
12:30 AM 62.6 °F 59.0 °F 88% 30.06 in 6.2 mi Calm Calm - N/A   Overcast
1:00 AM 62.6 °F 59.0 °F 88% 30.06 in 6.2 mi Calm Calm - N/A   Overcast
1:30 AM 62.6 °F 59.0 °F 88% 30.06 in 6.2 mi Calm Calm - N/A   Overcast
2:00 AM 62 °F 59 °F 86% 30.06 in - Calm Calm - -  
2:00 AM 62.6 °F 59.0 °F 88% 30.06 in 6.2 mi Calm Calm - N/A   Overcast
2:30 AM 62.6 °F 59.0 °F 88% 30.04 in 6.2 mi Calm Calm - N/A   Overcast
3:00 AM 62 °F 59 °F 87% 30.04 in - Calm Calm - -   Overcast
3:00 AM 62.6 °F 59.0 °F 88% 30.04 in 6.2 mi Calm Calm - N/A   Overcast
3:30 AM 60.8 °F 59.0 °F 94% 30.04 in 6.2 mi Calm Calm - N/A   Overcast
4:00 AM 59.0 °F 57.2 °F 94% 30.04 in 6.2 mi Calm Calm - N/A   Unknown
4:30 AM 57.2 °F 55.4 °F 94% 30.04 in 6.2 mi Calm Calm - N/A   Scattered Clouds
5:00 AM 56 °F 55 °F 96% 30.04 in - Calm Calm - -  
5:00 AM 57.2 °F 55.4 °F 94% 30.04 in 6.2 mi Calm Calm - N/A   Scattered Clouds
5:30 AM 55.4 °F 55.4 °F 100% 30.04 in 6.2 mi NNW 4.6 mph - N/A   Scattered Clouds
6:00 AM 58 °F 57 °F 94% 30.07 in - Calm Calm - -   Overcast
6:00 AM 59.0 °F 57.2 °F 94% 30.06 in 6.2 mi Calm Calm - N/A   Mostly Cloudy
6:30 AM 60.8 °F 60.8 °F 100% 30.06 in 6.2 mi Calm Calm - N/A   Overcast
7:00 AM 64.4 °F 60.8 °F 88% 30.06 in 6.2 mi Calm Calm - N/A   Overcast
7:30 AM 66.2 °F 60.8 °F 83% 30.06 in 6.2 mi ENE 3.5 mph - N/A   Overcast
8:00 AM 70 °F 61 °F 67% 30.07 in - ESE 8.1 mph - -  
8:00 AM 69.8 °F 60.8 °F 73% 30.06 in 6.2 mi ESE 8.1 mph - N/A   Scattered Clouds
8:30 AM 71.6 °F 59.0 °F 64% 30.06 in 6.2 mi East 9.2 mph - N/A   Overcast
9:00 AM 72 °F 60 °F 58% 30.07 in - East 9.2 mph - -  
9:00 AM 71.6 °F 60.8 °F 69% 30.06 in 6.2 mi East 9.2 mph - N/A   Overcast
9:30 AM 73.4 °F 60.8 °F 65% 30.06 in 6.2 mi East 10.4 mph - N/A   Overcast
10:00 AM 73.4 °F 60.8 °F 65% 30.06 in 6.2 mi East 9.2 mph - N/A   Overcast
10:30 AM 73.4 °F 62.6 °F 69% 30.06 in 6.2 mi East 9.2 mph - N/A   Overcast
11:00 AM 74 °F 62 °F 59% 30.06 in - SE 11.5 mph - -  
11:00 AM 73.4 °F 62.6 °F 69% 30.04 in 6.2 mi SE 11.5 mph - N/A   Overcast
11:30 AM 73.4 °F 62.6 °F 69% 30.04 in 6.2 mi ESE 10.4 mph - N/A   Overcast
12:00 PM 74 °F 62 °F 59% 30.04 in - ESE 11.5 mph - -   Overcast
12:00 PM 75.2 °F 62.6 °F 65% 30.04 in 6.2 mi ESE 11.5 mph 24.2 mph N/A   Overcast
12:30 PM 75.2 °F 62.6 °F 65% 30.01 in 6.2 mi ESE 12.7 mph - N/A   Overcast
1:00 PM 75.2 °F 62.6 °F 65% 30.01 in 6.2 mi ESE 13.8 mph - N/A   Mostly Cloudy
1:30 PM 77.0 °F 62.6 °F 61% 29.98 in 6.2 mi ESE 12.7 mph - N/A   Overcast
2:00 PM 78 °F 62 °F 49% 29.99 in - ESE 16.1 mph - -  
2:00 PM 78.8 °F 62.6 °F 57% 29.98 in 6.2 mi ESE 16.1 mph - N/A   Mostly Cloudy
2:30 PM 78.8 °F 62.6 °F 57% 29.98 in 6.2 mi ESE 17.3 mph - N/A   Scattered Clouds
3:00 PM 78 °F 62 °F 47% 29.96 in - ESE 17.3 mph - -  
3:00 PM 78.8 °F 60.8 °F 54% 29.95 in 6.2 mi ESE 17.3 mph - N/A   Unknown
3:30 PM 78.8 °F 62.6 °F 57% 29.95 in 6.2 mi ESE 16.1 mph - N/A   Unknown
4:00 PM 78.8 °F 62.6 °F 57% 29.92 in 6.2 mi ESE 17.3 mph - N/A   Unknown
4:30 PM 78.8 °F 60.8 °F 54% 29.92 in 6.2 mi ESE 16.1 mph - N/A   Unknown
5:00 PM 78 °F 60 °F 43% 29.93 in - ENE 16.1 mph - -  
5:00 PM 78.8 °F 59.0 °F 51% 29.92 in 6.2 mi ENE 16.1 mph - N/A   Unknown
5:30 PM 77.0 °F 62.6 °F 61% 29.92 in 6.2 mi ENE 15.0 mph - N/A   Unknown
6:00 PM 78 °F 64 °F 52% 29.93 in - East 13.8 mph - -  
6:00 PM 78.8 °F 64.4 °F 61% 29.92 in 6.2 mi East 13.8 mph - N/A   Unknown
6:30 PM 78.8 °F 64.4 °F 61% 29.92 in 6.2 mi ENE 12.7 mph - N/A   Unknown
7:00 PM 77.0 °F 64.4 °F 65% 29.92 in 6.2 mi ENE 10.4 mph - N/A   Unknown
7:30 PM 75.2 °F 64.4 °F 69% 29.92 in 6.2 mi NE 9.2 mph - N/A   Unknown
8:00 PM 75 °F 64 °F 61% 29.94 in - NNE 8.1 mph - -  
8:00 PM 75.2 °F 64.4 °F 69% 29.92 in 6.2 mi NNE 8.1 mph - N/A   Unknown
8:30 PM 73.4 °F 64.4 °F 73% 29.92 in 6.2 mi NE 8.1 mph - N/A   Unknown
9:00 PM 72 °F 65 °F 72% 29.94 in - NE 6.9 mph - -  
9:00 PM 73.4 °F 64.4 °F 73% 29.92 in 6.2 mi NE 6.9 mph - N/A   Unknown
9:30 PM 71.6 °F 66.2 °F 83% 29.92 in 6.2 mi ENE 9.2 mph - N/A   Unknown
10:00 PM 71.6 °F 66.2 °F 83% 29.92 in 6.2 mi NE 8.1 mph - N/A   Unknown
10:30 PM 69.8 °F 66.2 °F 88% 29.95 in 6.2 mi NE 4.6 mph - N/A   Unknown
11:00 PM 70 °F 66 °F 83% 29.94 in - ENE 5.8 mph - -  
11:00 PM 69.8 °F 66.2 °F 88% 29.92 in 6.2 mi ENE 5.8 mph - N/A   Unknown
11:30 PM 69.8 °F 66.2 °F 88% 29.92 in 6.2 mi ENE 4.6 mph - N/A   Unknown